Theta_e
318 316 316 316 317 317 317 317 317 317 317 317 317 316 315 313 310 309 308 306 307 307 307 306 307 307 307 307 307 306 308 311 312 313 313 312 312 314 316 315 315 314 311 311 311 313 312 312 312 312 315 317 317 318 315 319 325 327 337 335 324 324 322 320 323 320 322 323 319 317 317 319 317 314 313 312 316 317 316 320 323 326 327 326 327 323 326 335
317 316 315 316 317 316 317 317 317 317 316 317 316 316 315 312 309 308 308 306 306 307 307 306 306 307 307 307 307 307 310 314 314 315 313 313 315 313 317 317 315 313 310 311 312 312 313 313 311 314 320 319 316 318 317 316 324 334 335 329 334 338 323 320 324 318 318 319 318 318 316 317 317 316 314 315 316 316 316 317 323 332 332 328 327 326 331 335
317 315 314 315 316 316 316 316 317 316 316 316 316 315 314 312 308 308 307 307 306 307 307 307 306 306 307 307 308 309 311 313 314 315 313 315 318 315 316 318 314 311 311 312 313 312 313 314 310 315 320 319 319 319 320 317 320 330 330 325 337 340 323 318 321 317 317 318 319 318 314 314 315 315 313 316 316 315 319 319 321 331 341 337 329 328 332 333
316 315 315 314 315 315 315 315 316 316 315 315 314 314 313 311 308 307 307 306 306 306 307 307 307 307 307 307 309 310 311 310 311 315 314 314 319 317 314 314 311 311 312 312 314 314 314 312 310 316 318 318 321 318 319 320 317 321 326 328 330 328 321 318 318 317 315 316 319 318 315 314 313 313 313 316 317 316 319 320 320 329 347 340 329 329 331 331
315 314 315 314 314 315 315 315 315 315 315 314 314 313 312 310 308 307 306 306 305 306 307 307 307 307 307 307 309 312 311 307 311 318 316 314 318 315 311 311 312 311 312 313 315 314 312 310 310 317 319 316 319 319 318 318 317 316 319 324 325 320 317 317 318 317 314 315 318 317 316 315 313 313 315 317 319 320 318 319 319 324 342 338 330 330 329 330
315 314 314 313 314 314 315 315 315 314 314 313 313 312 311 310 308 307 306 306 305 305 306 307 307 307 308 307 309 313 311 308 312 317 316 316 315 312 311 312 312 312 312 313 313 312 313 312 311 315 317 315 317 319 317 314 315 319 316 317 321 319 317 317 318 317 315 316 318 318 315 314 314 314 315 315 318 320 317 316 314 317 331 332 328 329 330 330
315 314 313 312 313 314 314 315 314 314 314 313 313 312 311 310 309 307 306 306 305 305 305 306 307 308 309 308 310 314 314 312 314 316 316 314 313 312 312 313 313 313 313 312 312 314 315 314 313 315 316 315 315 316 315 314 316 323 319 315 317 317 317 317 317 318 317 318 318 315 313 314 317 316 312 313 316 317 314 309 306 314 324 327 328 329 329 329
315 314 313 312 313 314 314 314 314 313 314 314 313 312 311 310 309 308 306 306 305 305 305 306 307 308 310 309 312 316 314 314 315 315 314 312 312 312 313 313 313 313 313 312 313 315 315 314 313 313 315 314 314 314 313 314 317 320 318 316 316 315 317 317 317 319 318 317 315 313 314 315 316 313 312 316 319 318 314 310 313 321 326 327 329 330 328 328
315 314 313 312 313 314 314 313 313 313 313 314 314 312 312 311 309 307 306 306 305 305 305 306 307 308 311 310 312 313 311 314 316 314 312 311 312 313 313 313 313 313 313 313 313 313 312 314 314 312 315 314 312 314 314 316 318 317 318 318 316 315 315 315 315 318 318 316 315 315 316 315 313 312 315 321 320 317 317 321 328 330 331 330 330 329 327 327
314 314 313 312 312 313 313 313 313 313 313 313 313 312 313 313 310 308 307 306 305 305 305 307 307 309 312 311 311 309 311 317 316 313 312 312 312 312 313 313 313 314 314 313 313 311 312 314 313 312 315 314 312 313 313 314 316 318 319 318 317 317 315 315 316 316 317 316 315 316 316 316 314 314 317 319 315 314 321 328 328 334 337 331 329 328 326 326
314 313 313 312 312 313 312 312 312 313 313 312 312 313 313 313 311 308 307 306 305 305 305 307 307 309 312 312 311 310 314 318 314 312 312 312 312 313 315 314 314 316 314 314 313 312 313 312 310 312 314 313 313 314 313 313 314 316 319 317 318 319 315 314 316 315 316 315 314 316 316 315 314 316 318 316 313 313 321 328 326 333 336 329 329 328 325 325
314 313 313 312 312 312 312 311 310 312 312 311 312 313 313 313 311 310 307 305 305 305 305 307 307 310 311 309 311 312 316 317 313 312 312 312 313 314 316 315 315 317 315 313 314 314 314 313 312 314 314 313 315 315 315 315 314 315 318 317 318 323 319 314 315 315 316 314 315 316 314 316 316 317 318 314 313 313 317 324 324 325 326 325 327 326 325 324
314 313 313 312 312 312 312 311 310 310 311 311 311 312 313 312 312 311 307 305 306 305 306 306 308 311 310 307 311 315 316 316 313 312 312 312 314 315 315 314 315 316 315 314 314 314 314 314 314 315 314 317 317 312 314 316 315 316 317 319 319 322 319 314 314 316 315 315 315 314 312 319 321 317 315 312 312 313 316 320 320 320 318 318 321 323 325 322
314 313 313 312 312 312 311 311 311 310 310 310 311 312 312 312 312 311 307 306 306 306 307 307 309 312 309 308 313 315 316 314 312 312 312 313 313 314 314 314 315 315 315 314 314 314 315 314 313 314 313 317 315 311 318 319 318 316 313 322 323 315 319 319 316 316 314 314 314 312 312 319 322 318 314 311 311 312 316 320 319 318 316 315 316 318 320 319
314 313 312 312 312 311 311 311 310 310 310 311 311 312 312 311 312 310 307 307 307 308 308 308 311 312 308 310 313 315 316 313 312 312 312 314 313 314 314 314 314 313 313 313 314 314 315 313 314 317 313 313 314 315 322 321 324 323 313 321 323 313 321 325 316 317 316 313 313 311 315 320 320 319 314 311 314 314 315 321 318 317 316 315 314 313 314 314
314 313 312 312 311 311 310 310 310 310 310 311 311 311 311 311 311 310 309 308 308 309 309 311 313 310 308 310 313 315 314 313 313 313 314 314 314 314 313 313 313 312 313 313 315 314 313 316 316 315 314 315 316 320 324 321 326 327 315 319 323 315 320 321 315 317 317 315 314 312 316 320 318 320 316 311 315 314 315 319 319 318 317 315 314 312 312 311
313 313 313 312 311 310 310 309 310 310 311 311 310 310 309 310 310 310 310 310 311 311 311 314 313 309 307 309 313 315 313 313 313 313 315 314 314 314 312 314 313 312 314 314 315 314 313 317 313 312 318 317 317 320 319 315 319 322 318 319 322 320 319 319 318 317 315 316 316 314 315 320 320 321 320 315 314 315 317 320 321 320 318 316 314 312 312 311
313 313 312 312 311 310 310 310 310 310 311 310 310 310 311 312 312 312 312 312 312 310 311 312 310 310 309 309 314 316 313 314 314 314 315 315 314 314 313 314 312 312 315 315 314 314 314 317 317 319 321 316 315 318 317 317 318 319 318 317 318 317 315 318 321 316 314 315 317 317 316 320 321 319 319 316 311 314 318 319 319 320 320 319 316 314 313 311
313 313 312 311 311 310 309 309 310 311 311 310 311 312 312 312 312 312 313 312 310 307 310 310 308 312 312 311 316 315 313 314 314 314 314 315 314 314 314 313 315 316 316 316 314 315 320 320 317 319 319 316 315 314 318 323 323 321 322 324 324 321 317 319 321 315 314 317 318 319 318 320 320 317 319 317 311 313 317 317 317 317 317 317 316 315 313 313
313 312 312 311 310 310 309 309 310 311 310 311 312 311 312 313 313 314 313 313 311 307 310 311 311 315 314 314 317 315 314 313 313 314 314 314 314 315 314 314 319 319 317 320 317 315 321 320 316 318 317 317 317 314 317 319 319 320 323 327 326 322 319 317 318 316 314 316 318 318 318 319 319 317 318 315 310 312 316 318 318 316 315 315 315 314 313 313
313 312 311 310 310 310 309 310 311 311 310 312 312 311 313 314 312 314 313 313 310 306 310 311 311 316 315 314 315 312 313 313 313 314 314 315 315 314 315 315 318 317 317 322 320 315 319 318 317 319 316 315 316 316 316 317 318 321 322 324 322 319 319 315 315 317 314 313 317 316 316 318 318 317 316 313 311 313 317 317 316 316 313 312 313 314 313 312
313 312 311 310 310 310 310 311 312 311 311 312 312 313 315 311 309 310 310 310 307 306 311 312 313 317 314 312 314 312 315 316 314 315 315 314 314 314 316 318 317 317 316 318 318 317 318 319 318 317 313 313 314 315 319 322 325 325 321 321 321 319 318 316 315 316 314 314 319 320 319 318 316 316 315 313 313 312 313 312 313 314 312 311 312 312 312 312
313 311 311 310 310 310 311 311 312 311 311 312 312 313 315 310 309 309 308 309 308 309 311 313 318 321 315 313 314 312 314 315 315 316 315 315 316 315 317 317 317 318 316 316 319 318 318 319 319 315 312 313 314 315 319 322 323 325 323 321 320 319 319 317 315 315 314 312 317 320 320 317 316 320 317 311 310 311 313 314 312 311 312 312 312 312 312 312
313 312 311 310 309 311 311 311 312 312 312 312 312 313 312 311 312 310 310 310 309 311 311 310 316 321 317 314 314 313 313 314 315 314 313 315 316 315 316 317 317 317 316 318 318 317 318 315 313 314 314 316 317 315 317 319 317 321 330 332 325 324 322 318 316 317 316 313 316 318 317 322 326 329 326 315 310 312 314 315 315 315 313 310 311 312 311 312
313 312 311 310 310 311 311 312 312 311 312 312 313 313 311 312 311 310 313 312 309 311 309 308 314 317 316 313 313 314 314 315 316 314 312 314 315 314 314 315 317 317 316 316 315 316 316 311 311 315 316 319 320 317 319 322 317 315 327 332 328 332 329 321 319 321 320 317 314 312 314 330 336 330 329 322 316 317 314 314 317 319 314 310 312 311 309 311
312 310 310 310 310 311 312 314 312 310 312 312 313 313 311 312 311 309 313 313 311 311 309 309 311 313 314 314 316 316 313 314 314 313 313 313 313 313 313 313 315 317 315 314 315 317 315 312 315 320 321 320 319 318 318 321 320 315 319 322 326 335 330 322 320 318 320 315 311 313 315 322 325 322 322 319 319 322 318 317 318 315 312 311 312 311 310 311
311 310 311 310 311 312 313 314 311 311 313 312 312 313 311 312 311 309 312 312 311 311 309 309 308 310 314 313 314 314 313 315 313 312 314 313 312 311 314 315 313 315 314 315 318 316 314 316 317 321 326 322 318 319 316 318 321 315 317 322 328 330 325 326 326 321 322 316 315 325 322 314 317 318 318 316 318 321 318 318 318 315 314 315 312 313 314 314
311 311 311 311 312 313 314 313 311 311 313 311 311 312 311 312 309 309 313 310 310 311 309 307 307 311 313 310 312 314 313 315 315 314 312 312 311 312 317 318 316 318 314 315 319 315 315 320 319 321 326 322 321 321 317 320 325 318 316 322 326 326 328 334 336 330 321 313 318 328 317 312 323 324 320 316 314 317 318 318 318 317 319 323 325 324 323 321
312 312 311 312 312 313 315 314 311 311 313 311 311 311 310 309 308 310 313 308 309 310 308 308 309 312 313 310 312 315 314 315 317 315 312 312 311 311 315 316 317 319 313 316 323 317 314 317 317 320 322 321 321 318 316 324 326 318 314 320 322 324 329 332 333 327 317 313 324 327 313 312 321 327 327 316 311 319 322 319 319 321 324 329 333 331 327 328
312 312 311 313 313 313 316 315 312 314 315 312 311 311 309 309 309 309 308 308 311 311 308 308 310 313 315 312 312 314 316 317 316 315 314 315 314 312 312 312 316 322 320 323 326 319 314 313 314 316 317 318 318 316 316 320 317 315 319 322 321 325 329 332 332 323 313 319 328 323 316 313 313 325 330 316 312 319 319 319 321 323 325 326 329 329 331 336
313 313 312 313 314 314 316 316 314 316 315 312 312 310 309 312 314 309 307 311 315 312 308 309 310 313 314 312 313 314 317 318 316 315 316 315 315 315 313 311 316 322 322 324 323 319 316 314 316 316 315 317 320 319 316 315 315 318 326 325 320 324 326 328 331 321 315 325 324 317 316 313 312 322 324 318 318 317 316 318 319 319 323 325 327 333 338 343
314 314 313 313 314 315 317 316 315 317 315 312 312 312 312 313 312 310 309 311 314 312 311 310 310 314 314 312 315 316 318 319 315 315 318 318 316 315 315 315 319 319 318 320 321 319 318 318 317 316 314 316 324 325 318 319 322 320 322 323 319 321 319 321 328 321 319 322 316 315 316 312 314 318 315 316 319 317 316 320 320 318 323 329 328 331 338 341
315 315 315 314 315 315 317 317 317 318 315 311 311 315 319 315 309 310 311 311 312 312 313 313 312 313 313 313 315 316 317 317 315 315 317 318 317 314 316 318 320 320 320 321 322 319 320 323 319 316 316 315 319 323 320 321 322 317 318 322 321 321 316 318 323 316 316 319 313 313 315 315 318 315 313 316 313 313 315 317 322 321 322 326 325 328 338 339
314 316 316 315 316 316 317 318 318 317 313 310 310 313 317 313 310 311 311 312 314 313 313 315 313 312 312 313 314 315 316 315 314 316 316 317 316 316 317 315 315 322 324 321 321 320 320 323 321 318 319 317 315 319 324 324 319 317 317 316 318 325 323 320 321 319 320 321 316 311 314 322 321 311 312 315 313 317 319 317 320 320 317 318 324 333 341 338
315 315 315 315 316 317 317 318 318 314 311 309 309 311 311 310 312 312 310 314 318 316 313 313 312 313 313 313 312 314 317 317 314 315 317 317 316 316 316 312 314 322 323 317 317 318 316 318 320 318 315 317 317 318 322 322 318 317 315 312 315 322 325 318 315 319 319 317 317 314 317 326 320 311 313 311 311 317 319 319 319 319 318 316 325 339 338 334
315 315 316 316 317 318 317 317 315 312 311 310 308 309 310 311 317 316 311 316 318 314 312 312 313 314 312 311 313 313 314 318 316 315 316 316 316 315 315 313 315 317 316 317 319 317 316 316 317 316 314 315 317 316 318 319 319 316 313 317 318 317 324 320 310 312 313 311 316 316 319 323 316 313 317 313 313 314 314 318 317 319 322 317 320 335 336 331
313 314 315 315 316 317 316 316 313 311 314 311 306 309 310 311 317 320 317 316 314 311 312 313 312 314 313 311 314 314 314 318 316 315 316 315 316 316 315 315 314 313 313 317 318 318 320 319 315 316 316 314 312 315 318 317 316 319 319 320 316 311 319 322 314 318 318 315 319 317 316 320 317 316 319 315 313 315 315 317 315 316 321 316 317 327 331 330
310 311 313 314 315 315 315 315 313 313 316 312 307 312 315 313 315 322 322 314 311 312 314 315 313 313 313 312 313 313 313 317 316 315 316 314 316 317 315 315 314 312 312 312 313 315 320 319 314 314 317 315 313 316 318 314 312 318 321 318 316 317 320 317 313 320 319 314 322 321 313 314 316 319 321 314 313 319 317 313 314 315 316 315 316 320 324 328
309 311 313 313 314 315 315 314 313 315 316 312 308 310 318 318 316 320 321 314 314 315 313 316 315 312 312 312 313 312 313 315 315 315 315 314 315 316 313 314 314 312 311 311 312 313 316 316 315 313 314 316 316 316 318 318 313 313 314 311 317 324 323 318 315 317 317 315 319 322 318 317 318 319 319 313 315 321 316 312 315 317 315 314 315 319 323 326
308 312 313 311 313 315 313 311 313 316 315 312 310 309 315 319 316 316 317 315 317 316 314 320 317 312 314 313 312 312 313 315 314 314 315 313 313 313 311 312 313 313 311 310 312 314 313 312 313 313 312 315 319 318 317 318 316 315 315 313 316 318 317 318 316 314 319 321 320 319 317 319 321 319 317 314 315 319 318 316 318 316 315 314 315 320 323 323
308 311 311 310 313 314 312 312 314 316 315 314 314 314 315 317 316 317 317 315 317 316 318 324 320 314 316 313 312 313 313 315 314 314 314 312 312 313 312 311 313 313 312 309 311 315 313 311 317 319 316 316 320 317 315 317 316 315 315 316 316 316 316 317 315 313 315 317 320 319 313 316 323 317 312 311 312 315 316 316 317 314 313 314 315 320 324 325
307 311 310 311 314 313 312 313 311 311 313 315 314 314 316 316 316 318 317 316 318 317 317 323 325 321 318 313 312 315 314 314 314 314 315 313 312 313 312 312 313 312 312 312 311 315 317 318 322 323 320 319 318 314 312 316 317 315 314 316 315 315 317 317 317 317 314 312 316 317 314 320 324 315 310 309 310 313 315 316 317 315 313 315 316 318 321 322
308 310 309 310 312 312 311 310 308 308 310 311 312 312 314 316 317 317 316 316 318 318 318 322 323 320 318 316 314 314 313 314 314 314 316 314 312 315 315 313 313 312 312 312 312 313 316 317 319 320 322 324 321 317 313 313 314 316 317 318 316 316 320 322 322 320 318 316 316 314 314 322 326 320 316 313 312 314 316 317 319 318 317 319 318 316 317 319
306 308 308 308 309 310 310 310 310 310 309 309 312 312 313 315 316 316 317 318 318 319 320 322 319 316 319 320 318 315 313 313 314 313 317 316 312 316 319 315 313 312 312 313 313 312 313 316 317 317 320 323 322 321 319 315 315 319 321 319 317 319 320 319 317 315 315 320 320 316 315 319 323 323 318 313 314 316 315 316 320 320 319 319 319 319 320 321
304 305 305 306 308 309 310 310 309 310 309 309 311 313 313 314 315 316 317 318 319 320 319 319 318 319 322 320 319 318 314 315 317 315 316 317 313 316 320 319 313 311 316 319 314 311 315 317 317 316 316 317 317 318 319 319 317 318 321 319 315 318 318 315 316 316 316 320 319 316 315 314 315 316 313 312 315 316 313 314 316 317 317 317 319 323 323 322
305 305 304 306 308 309 310 310 309 309 309 310 311 312 313 314 314 316 316 316 318 319 318 317 318 320 321 318 319 319 314 315 319 317 317 318 317 316 317 318 317 313 319 321 315 315 322 319 314 314 314 313 313 316 320 322 319 317 320 319 316 317 317 316 318 318 316 317 316 315 314 313 314 315 313 313 317 317 316 316 316 317 319 321 321 321 322 325
304 306 306 307 309 309 310 310 309 308 308 310 311 311 311 313 314 316 315 314 317 319 318 318 318 319 320 319 320 320 316 316 318 318 318 319 319 317 313 315 317 316 318 318 313 318 323 318 313 314 313 312 312 317 320 321 320 318 318 319 317 316 316 316 317 316 314 316 315 314 314 314 314 316 317 317 318 320 321 319 317 317 319 322 322 320 323 327
302 304 304 304 307 309 309 310 310 309 309 310 311 311 311 311 313 315 315 315 317 317 317 318 319 319 320 320 320 320 318 318 318 320 320 320 319 318 315 315 314 314 317 316 314 318 320 317 315 314 313 313 314 319 320 318 318 318 317 318 317 316 316 316 316 315 315 316 315 314 317 316 312 314 317 317 317 319 320 318 316 315 317 321 320 320 324 326
300 302 302 301 303 305 307 309 310 309 310 310 310 311 311 311 312 314 315 316 316 317 317 318 318 318 319 319 320 321 319 317 319 320 319 319 319 318 319 319 315 313 317 317 315 317 318 321 321 315 312 313 317 321 321 318 317 317 316 317 316 315 315 315 315 315 315 315 315 314 317 316 312 314 315 314 315 315 315 316 317 317 319 320 319 321 324 323
300 302 303 302 303 304 304 308 310 310 310 311 311 311 311 311 311 312 314 315 316 316 316 316 317 317 318 319 319 320 319 317 320 321 319 319 319 318 320 322 318 315 317 317 316 315 314 320 323 317 313 316 318 320 319 316 317 317 317 317 315 314 315 314 314 315 314 315 315 314 316 315 313 315 317 316 316 316 315 318 321 321 321 320 318 319 321 320
299 300 301 302 304 304 304 306 310 311 311 311 311 311 310 310 311 312 313 314 314 316 316 316 316 317 317 317 318 318 318 318 319 321 319 318 318 318 319 320 318 317 317 317 318 317 314 317 321 318 317 318 318 319 318 314 314 317 317 317 315 314 315 313 314 314 314 315 315 315 316 314 313 315 317 317 317 317 318 321 322 320 319 319 318 316 315 314
298 298 300 302 304 304 303 306 309 310 311 310 310 310 310 311 311 311 313 314 313 314 316 315 316 316 317 317 317 317 317 318 317 317 317 315 316 317 319 319 320 322 321 318 318 319 317 320 322 319 319 320 317 317 318 317 316 318 317 316 315 314 313 313 314 314 314 314 315 315 314 314 316 317 317 318 319 320 320 319 319 318 316 315 314 313 311 311
Wind_Speed
17 17 20 16 13 14 13 12 12 11 11 10 10 9 10 12 14 14 15 15 14 13 12 12 11 10 10 8 6 4 5 7 8 10 8 8 13 10 8 11 8 4 5 6 7 6 4 2 2 3 4 3 2 0 1 2 2 4 3 4 2 3 3 5 7 7 4 4 6 5 6 8 5 2 1 2 5 3 3 3 3 4 3 2 6 4 14 29
17 17 19 17 14 14 14 13 12 11 11 10 9 9 9 12 15 14 14 15 14 13 12 12 11 10 9 7 6 5 6 7 6 7 10 9 11 10 7 8 8 6 6 7 7 6 5 2 2 5 5 2 1 2 1 1 3 4 3 3 3 5 4 5 7 6 3 4 6 4 4 5 6 5 3 2 0 1 3 2 5 4 4 5 3 8 23 28
17 16 18 17 16 15 14 14 12 11 11 10 9 8 10 13 15 14 14 14 13 13 12 11 11 10 9 8 5 6 7 5 2 5 10 10 10 10 8 7 7 7 7 6 6 6 6 5 5 6 4 2 1 2 1 1 1 2 4 3 5 6 4 4 5 6 4 4 7 4 2 2 3 4 2 4 4 1 5 5 1 3 6 1 3 12 21 23
17 17 18 17 16 15 14 14 12 11 10 9 9 9 10 12 13 13 13 13 13 13 12 11 11 10 8 8 6 8 8 3 2 5 9 12 9 8 8 8 8 8 7 6 6 5 5 6 6 5 4 1 3 3 1 1 1 2 4 4 6 4 2 4 6 5 4 5 7 5 4 1 2 2 2 7 6 2 6 7 7 8 8 6 5 10 18 20
18 16 17 17 16 15 14 14 13 10 9 8 10 10 10 11 12 12 13 12 12 12 11 11 10 9 8 7 7 9 7 3 3 5 10 13 10 8 9 9 8 8 8 7 6 6 5 6 6 5 4 1 2 3 1 2 2 2 0 4 5 4 2 3 5 3 3 5 6 7 6 4 2 1 3 9 7 6 7 8 11 10 10 12 11 12 15 16
18 16 18 18 16 15 14 14 12 10 8 8 10 10 10 11 11 12 12 12 12 11 11 10 10 9 8 7 8 8 5 2 2 5 9 12 11 10 10 9 9 9 9 8 6 6 5 5 5 3 3 2 1 2 2 2 2 2 2 2 3 4 2 1 2 3 3 7 7 7 5 3 4 1 3 8 8 8 6 6 8 8 11 15 15 14 13 13
17 16 17 17 15 15 14 14 12 9 8 8 9 9 9 10 11 11 12 12 11 10 10 10 9 9 8 8 7 4 2 2 2 7 9 11 11 11 10 9 9 9 9 9 6 5 5 5 4 4 4 2 3 2 1 2 5 4 2 1 1 3 2 2 2 1 4 7 6 4 4 3 6 3 1 5 10 8 5 4 4 9 12 15 13 13 13 15
17 16 16 15 16 15 15 14 11 9 8 7 8 8 8 9 10 11 11 11 10 10 10 10 9 9 9 9 6 3 1 3 4 9 10 11 12 11 10 8 9 9 9 9 7 6 5 6 5 4 4 1 4 3 1 3 5 3 3 2 1 1 2 4 4 4 4 4 2 5 5 2 5 3 1 7 11 8 3 2 4 10 12 11 12 13 12 13
17 16 15 15 17 16 15 14 11 10 9 8 7 8 7 8 9 10 11 11 10 10 9 10 9 9 11 7 5 3 3 4 6 9 10 11 11 10 9 8 9 9 9 7 7 9 6 5 5 4 4 3 4 3 2 3 1 2 3 2 3 2 4 4 3 4 4 2 3 5 2 4 2 1 3 8 9 4 3 6 6 9 9 10 10 12 12 12
17 15 15 16 17 17 17 15 11 10 9 8 7 7 7 7 9 9 10 10 10 10 9 10 10 10 10 5 6 3 4 4 8 10 10 11 10 11 9 7 9 9 9 6 6 9 5 5 6 5 5 3 4 2 2 4 3 3 5 5 4 2 3 3 2 3 3 1 2 4 3 4 3 2 4 6 4 2 6 6 5 8 9 10 9 10 13 13
17 15 14 16 17 18 18 15 11 10 9 9 7 7 6 6 8 9 9 10 10 10 10 11 11 11 8 4 6 4 3 5 9 10 11 10 10 10 8 7 8 8 8 6 7 8 4 8 9 6 2 2 4 2 1 2 3 5 7 5 6 6 2 4 3 2 3 1 1 5 2 4 3 2 5 3 6 1 6 6 5 7 7 9 9 9 10 14
16 15 14 15 17 17 17 14 10 10 9 9 9 7 5 6 7 8 8 9 9 10 11 11 12 11 5 3 3 4 3 6 9 10 11 10 9 8 7 7 7 6 7 6 8 8 5 10 11 6 1 3 5 2 1 2 4 3 5 4 6 8 3 4 2 2 2 1 1 3 1 4 3 5 5 1 5 2 4 5 5 6 6 6 8 7 8 12
17 15 14 14 15 15 15 13 11 11 9 10 11 7 5 6 6 7 8 9 10 11 11 11 12 10 5 1 3 4 4 7 9 10 10 9 8 8 6 7 6 5 5 6 9 8 7 9 9 6 3 6 3 2 4 4 4 1 4 4 2 7 4 4 2 2 1 1 3 2 1 6 8 9 5 2 3 4 2 5 6 6 6 5 6 6 7 11
17 15 14 14 14 14 14 12 11 11 10 11 11 7 5 5 5 7 9 10 10 11 10 11 11 7 3 1 3 3 5 8 10 10 10 9 8 8 6 6 6 5 3 5 8 7 6 8 9 6 3 4 3 2 5 6 4 2 3 3 2 1 4 6 3 1 4 0 3 6 2 6 9 9 7 6 1 5 5 7 7 6 6 5 6 6 8 10
17 14 14 13 13 13 12 12 11 10 10 10 10 7 6 5 5 6 10 10 10 11 10 11 11 6 2 2 2 3 6 7 9 10 9 10 9 7 6 6 6 6 5 6 9 7 7 10 9 5 1 2 4 6 4 4 4 4 2 2 3 2 5 8 3 3 4 0 4 7 2 6 8 9 6 4 1 7 7 7 7 6 7 7 6 6 7 9
16 14 13 12 11 12 12 12 11 10 10 9 8 7 6 5 5 8 10 10 10 11 9 8 8 5 2 1 1 2 5 5 9 10 9 10 9 6 8 8 7 7 7 6 8 8 8 8 5 3 3 3 5 7 4 3 3 4 3 2 2 2 3 5 2 1 1 1 3 3 3 4 5 7 6 4 4 5 5 6 7 6 8 7 6 7 7 8
17 15 13 11 10 11 13 12 12 11 9 9 9 9 8 7 7 8 10 11 11 9 7 6 7 3 1 1 1 2 4 6 10 11 9 8 7 9 10 7 5 6 7 6 6 5 5 5 2 1 3 4 3 6 5 0 3 3 2 2 3 3 2 2 3 3 3 2 1 2 2 6 7 8 9 5 4 3 2 6 7 6 7 7 7 7 7 8
17 15 13 12 10 12 13 12 12 11 9 11 12 12 11 10 9 9 11 14 12 9 6 3 6 2 2 2 3 3 3 7 11 10 9 7 8 9 8 4 5 7 7 5 3 3 3 4 2 2 3 3 3 5 5 5 5 5 3 3 2 2 3 3 3 3 3 2 2 0 2 9 11 10 11 8 1 2 6 7 6 7 7 7 7 7 8 8
17 15 13 12 11 13 13 13 12 11 12 14 16 18 16 13 10 8 8 9 7 5 2 3 5 3 4 4 3 2 5 9 10 8 8 7 8 8 6 5 6 7 5 2 1 1 1 3 4 3 3 3 6 6 7 8 8 9 6 5 5 3 4 5 4 4 1 3 3 5 5 8 10 10 11 10 2 1 8 6 6 7 7 8 7 8 9 9
17 15 13 12 13 14 13 13 12 12 13 17 21 19 12 8 6 3 1 0 2 2 2 5 5 3 0 1 3 8 9 8 5 4 7 7 9 8 5 5 5 6 4 4 2 1 3 4 3 5 7 8 8 7 5 5 6 7 6 5 4 4 2 4 3 5 0 3 3 4 4 8 10 11 12 10 5 4 9 9 9 9 7 8 8 9 10 11
17 15 13 12 14 14 14 14 12 13 14 19 21 11 4 6 3 4 3 2 4 2 2 4 4 3 1 3 8 9 7 4 2 2 6 6 8 8 1 3 5 3 1 3 3 2 4 5 7 7 8 7 6 7 6 6 6 6 6 5 2 3 2 3 2 4 3 1 3 2 3 9 10 11 12 9 6 7 10 10 10 11 10 8 8 11 12 10
18 16 14 13 15 15 15 14 13 13 14 18 15 3 2 5 2 7 8 1 4 1 2 2 4 4 2 4 8 5 4 4 1 1 4 4 4 5 1 3 6 4 1 3 4 3 3 4 9 7 5 6 6 5 7 7 6 5 4 5 3 2 2 3 3 4 4 1 3 4 5 9 10 11 12 10 9 9 9 9 9 10 10 9 9 12 12 10
18 16 14 14 17 16 15 15 13 13 14 16 12 2 2 3 5 11 8 4 2 1 2 2 3 3 2 2 6 3 4 5 5 4 5 5 3 3 4 5 6 5 3 4 6 5 3 6 7 5 7 8 6 3 7 7 4 4 4 5 3 2 1 1 2 3 3 2 2 3 5 8 7 7 10 8 6 7 7 8 9 9 10 12 11 10 9 11
18 17 15 15 18 18 16 15 13 12 14 15 13 6 2 5 10 10 4 4 3 1 1 1 2 4 3 3 6 5 3 3 5 5 6 7 4 3 5 5 5 5 4 6 8 8 5 5 2 8 7 8 7 3 6 6 1 1 3 6 4 3 4 2 1 2 3 3 2 3 4 6 5 5 7 5 3 5 6 6 8 9 10 11 10 9 9 9
19 17 14 16 19 19 17 14 11 13 14 12 11 9 4 6 10 8 3 3 2 1 1 1 1 4 5 4 4 5 3 1 1 3 5 7 6 4 3 2 4 5 4 5 8 6 5 3 4 9 5 5 8 4 5 7 2 2 3 6 7 7 6 3 1 3 4 4 4 4 3 5 5 5 7 5 6 7 5 5 9 10 8 7 9 10 8 7
19 17 17 19 20 21 17 8 10 13 12 8 9 10 7 7 9 7 4 4 1 1 1 3 2 5 7 4 3 4 3 1 1 1 3 5 3 3 3 1 2 3 5 5 4 3 1 2 4 7 6 6 7 4 5 6 6 1 4 5 7 7 8 5 3 4 1 2 3 4 3 4 7 5 8 6 7 9 7 6 9 8 7 7 8 9 7 6
19 18 20 21 21 23 13 4 12 15 7 6 10 11 7 6 8 5 5 4 3 2 4 1 0 6 8 3 4 6 3 4 2 3 2 3 0 3 4 3 2 2 3 4 2 2 2 3 5 6 7 6 6 4 5 7 7 3 3 6 8 7 8 6 5 4 2 3 4 5 4 2 6 6 7 5 6 10 10 9 10 8 8 8 8 9 8 7
22 20 21 21 22 21 7 6 18 13 4 7 13 12 8 7 8 3 5 2 2 2 4 1 1 6 4 1 4 5 2 3 5 2 2 4 1 4 3 5 5 4 1 4 4 3 1 4 4 5 6 4 4 4 6 8 6 3 3 7 6 6 7 5 6 4 0 1 4 5 1 2 6 7 6 5 4 9 10 10 9 8 8 8 7 7 7 7
22 21 20 21 22 16 4 9 18 10 5 11 14 13 10 8 6 4 3 3 1 2 2 2 3 3 2 3 3 3 1 1 2 3 2 4 1 4 3 5 6 7 3 4 5 3 1 3 6 6 5 5 3 1 3 5 3 4 6 7 6 6 6 5 5 4 2 2 4 6 1 2 5 7 4 3 2 7 9 7 7 8 7 6 6 6 5 5
21 21 21 20 20 15 6 8 13 8 7 12 14 13 10 6 4 4 3 4 2 1 0 2 3 2 6 7 1 2 2 2 1 1 3 1 3 6 2 2 6 7 4 6 3 1 2 1 2 3 3 5 4 3 1 1 4 7 6 7 7 6 5 4 3 4 3 3 6 6 2 1 3 6 4 3 4 5 3 4 5 6 6 5 5 6 6 5
22 22 22 19 18 16 7 5 11 9 8 13 15 12 7 4 2 4 6 4 3 2 1 2 1 4 11 12 5 1 3 2 0 4 3 1 3 4 2 2 4 5 3 4 2 4 4 3 0 1 1 4 6 5 4 4 4 6 5 5 5 4 5 4 4 4 1 5 6 5 2 2 4 6 4 4 6 5 3 2 3 5 8 7 6 6 6 5
25 23 23 20 17 16 7 4 11 9 9 16 15 7 4 4 2 5 4 1 2 3 3 4 3 5 11 9 5 3 4 2 0 4 5 4 4 3 4 4 4 4 2 3 1 3 2 1 2 2 1 4 6 5 4 5 5 5 5 6 5 2 3 2 3 1 3 6 4 2 2 2 6 7 7 9 9 7 7 7 5 5 7 7 7 7 6 5
24 22 23 22 17 15 8 5 11 8 10 17 10 4 5 4 7 7 3 1 2 2 4 4 2 5 10 7 4 4 3 2 3 3 2 3 5 4 2 3 6 5 3 5 4 2 1 4 3 1 1 2 5 6 4 1 0 4 6 5 4 3 2 2 4 2 4 4 3 3 2 3 4 4 9 12 9 6 7 7 7 7 7 7 7 7 7 5
21 20 22 22 18 15 10 7 10 9 11 13 6 5 5 6 6 5 5 4 1 2 2 4 6 7 7 5 5 5 3 1 4 4 3 4 5 5 5 5 4 5 4 4 3 5 4 4 3 4 2 3 5 5 6 6 3 3 4 5 5 5 4 4 4 3 4 3 3 3 2 3 2 1 6 8 7 6 5 6 6 7 6 5 7 6 6 6
17 21 22 21 19 16 12 9 9 11 13 8 4 5 8 9 5 4 6 5 1 2 3 3 8 8 4 2 1 5 3 2 3 4 4 5 6 7 7 6 5 4 5 6 3 3 4 4 4 1 2 5 6 3 4 7 2 1 2 5 3 5 5 3 3 5 3 1 2 2 3 4 3 6 7 4 4 6 6 5 5 6 6 5 5 6 5 6
13 17 19 18 18 19 16 11 10 13 12 6 4 6 7 6 4 4 5 5 4 6 7 4 4 5 4 1 2 5 1 3 4 4 4 4 3 6 7 5 6 6 6 7 3 2 3 3 4 3 2 2 3 2 3 3 3 2 2 3 5 4 7 5 2 0 3 1 3 1 4 5 3 7 8 3 4 5 5 6 6 6 7 4 3 5 5 6
9 10 10 10 13 19 19 13 12 13 8 5 7 9 4 2 3 3 3 4 6 8 9 5 2 4 6 4 5 7 3 3 4 4 4 3 2 6 7 4 5 10 8 4 2 3 5 1 4 1 1 1 1 2 4 3 3 5 3 5 4 2 5 4 2 2 4 2 5 1 4 5 2 4 6 4 5 6 5 4 4 6 6 3 2 4 5 6
5 4 3 5 9 17 19 15 13 10 5 3 10 10 2 2 3 3 2 4 6 6 6 5 3 3 6 6 5 7 6 4 5 4 4 4 4 6 9 5 4 10 9 3 2 3 5 3 4 1 2 3 4 4 2 4 3 4 4 3 4 3 2 2 2 1 1 2 5 4 4 3 4 5 4 2 6 8 7 3 2 2 2 1 3 4 4 5
4 2 1 3 7 10 13 14 11 8 4 5 11 9 2 1 2 2 2 3 5 5 5 5 2 2 5 6 6 6 6 6 7 6 4 5 5 5 9 6 3 8 9 5 4 3 4 4 2 2 1 2 3 2 5 1 3 3 2 3 3 3 4 3 3 3 3 3 3 4 4 3 6 6 5 7 9 9 7 4 6 6 4 2 0 2 1 3
2 2 1 4 7 9 13 12 7 5 4 6 7 4 1 1 1 3 2 1 2 2 4 5 3 4 4 4 4 5 5 5 8 6 4 5 5 4 7 7 4 7 7 4 3 3 3 3 3 1 2 1 2 3 7 7 4 3 3 4 2 1 2 2 1 3 4 3 2 3 4 5 5 4 8 10 9 8 6 6 8 6 5 4 3 4 3 1
2 2 1 4 10 13 14 10 3 4 5 2 1 2 0 1 2 1 3 0 2 1 2 4 4 5 5 4 4 5 4 4 6 5 3 6 6 5 6 7 7 8 6 3 2 4 3 3 4 2 0 4 4 3 3 6 6 6 6 7 7 4 4 3 2 1 2 3 4 3 4 6 5 4 6 6 4 6 6 6 9 6 5 5 4 4 4 4
2 2 1 5 14 14 8 3 0 1 2 2 1 2 1 1 2 1 1 2 2 1 2 3 2 3 5 5 4 5 6 5 5 6 4 7 8 6 4 5 9 11 9 5 4 4 3 4 4 3 3 6 5 3 1 3 3 3 3 4 5 5 5 6 5 4 1 1 2 3 3 7 5 3 3 3 3 5 6 5 8 6 5 4 5 6 6 6
2 2 1 4 15 13 5 1 1 0 1 1 0 1 1 1 1 1 1 1 2 2 2 1 2 2 2 3 4 7 8 5 6 7 5 5 6 4 4 6 9 10 9 6 4 3 2 4 4 1 3 4 4 4 3 3 3 2 2 2 5 4 3 5 5 4 4 4 3 3 3 7 6 3 1 2 2 4 4 5 8 6 5 5 7 6 4 3
1 1 2 1 9 11 5 2 2 3 2 1 2 1 1 1 2 2 1 1 1 2 2 1 2 1 2 3 4 7 9 5 6 8 4 3 4 1 2 7 9 9 7 5 6 5 3 3 4 3 1 3 4 3 3 2 2 3 3 3 5 5 6 4 2 3 2 5 6 5 6 7 5 5 4 1 4 6 4 4 6 6 4 4 5 5 5 6
1 1 1 2 2 5 3 2 3 3 3 4 2 1 1 0 1 3 3 2 2 3 3 1 1 2 3 3 3 3 7 4 3 6 3 3 3 2 2 3 7 8 4 2 4 6 5 4 5 6 6 6 6 6 5 4 3 2 2 4 5 7 9 5 2 3 4 5 7 7 7 5 4 5 3 2 5 6 4 4 4 5 4 4 4 6 6 7
1 1 0 1 1 0 0 2 4 3 3 5 2 2 4 3 2 1 3 2 1 2 2 0 1 3 2 3 4 4 6 1 2 4 5 4 3 1 2 1 3 4 1 3 4 6 4 3 6 9 11 11 10 6 5 8 7 5 6 8 8 8 11 8 4 5 8 3 4 9 9 6 5 4 4 5 6 6 6 5 6 4 4 5 4 5 6 6
1 1 2 2 0 1 2 2 5 4 4 5 3 3 7 5 2 0 2 2 2 2 2 1 1 3 3 5 5 4 4 2 2 3 5 4 2 1 1 2 3 1 2 3 3 4 4 3 8 10 12 12 8 6 7 10 11 13 12 11 11 11 11 11 9 12 8 4 6 11 7 8 11 7 7 9 8 7 6 6 5 1 4 5 4 5 6 6
0 0 1 0 0 2 3 4 7 6 5 6 4 4 6 6 4 3 2 1 0 1 2 1 3 5 5 6 5 4 5 3 2 3 3 2 2 1 2 2 2 1 2 3 0 3 5 5 7 8 11 12 5 4 8 10 10 12 13 15 15 13 13 14 16 16 10 7 14 12 10 12 16 9 10 12 9 7 6 6 3 1 3 5 5 6 6 6
1 0 1 2 1 1 2 2 8 8 7 8 5 4 7 8 8 6 2 3 1 2 4 4 4 5 5 4 4 5 6 5 5 5 3 3 3 3 2 1 0 1 3 4 1 2 4 4 4 7 9 11 4 4 7 9 8 8 11 14 15 16 17 19 19 19 15 13 16 13 10 14 13 8 11 10 7 5 3 2 1 3 3 4 6 5 6 5
1 0 1 2 2 0 3 0 7 8 6 7 6 5 7 9 10 8 4 5 4 3 5 6 4 5 6 5 3 4 6 5 4 5 5 4 3 2 3 4 2 2 2 3 2 1 2 3 2 6 5 8 4 4 6 8 9 9 9 11 12 14 17 18 18 17 13 12 16 14 12 13 7 7 9 5 4 2 1 2 3 5 3 4 3 2 5 4
2 1 1 2 1 1 1 1 4 6 5 6 6 6 8 11 12 9 5 6 6 4 5 7 5 4 3 5 6 7 6 4 4 4 5 5 4 3 2 2 4 4 2 2 2 2 3 2 2 5 4 6 3 6 5 4 4 5 8 10 13 14 15 15 14 12 11 13 15 13 12 12 6 7 5 2 3 2 1 2 4 3 1 4 5 3 2 2
3 3 2 3 1 1 1 1 2 6 6 7 8 6 6 8 9 9 5 5 7 8 6 7 7 4 4 6 9 8 4 4 4 5 4 2 2 3 3 3 4 5 4 3 2 2 5 4 2 4 5 4 2 6 7 6 3 5 10 14 17 16 13 10 9 11 13 13 12 11 12 9 4 7 5 3 4 5 4 5 4 2 3 5 5 4 3 2
Wind_Direction
182 187 187 183 177 176 176 178 178 180 178 174 170 171 176 181 185 186 189 192 192 194 193 191 189 192 194 193 200 205 205 200 191 185 190 207 204 204 208 212 222 218 196 187 181 171 144 86 122 112 109 100 20 291 34 8 65 61 84 100 143 181 200 182 177 193 168 181 199 204 183 144 157 196 151 66 54 74 66 19 326 316 327 293 287 305 164 168
183 187 185 181 178 175 174 175 176 179 176 173 168 169 178 183 188 188 189 192 192 194 194 191 190 193 195 192 191 188 191 194 189 202 213 204 195 203 209 211 213 201 187 184 184 168 138 106 114 97 85 95 347 4 29 339 77 87 114 109 202 201 203 199 176 189 170 161 179 183 180 161 169 164 139 151 104 70 122 306 344 333 310 357 25 140 155 166
185 186 183 179 178 175 174 174 175 180 175 173 172 174 184 186 187 188 189 191 192 196 197 195 194 194 193 189 183 182 182 171 179 230 219 197 185 200 211 209 196 184 181 176 176 158 139 133 125 105 71 78 336 17 71 10 69 145 124 111 234 210 217 236 187 201 216 158 153 168 177 166 184 159 151 162 157 169 190 212 316 256 255 324 106 143 154 165
187 187 183 180 179 177 176 174 176 182 178 175 179 184 188 186 185 188 190 190 193 198 200 198 196 194 191 188 180 180 169 130 243 218 195 191 188 196 198 193 181 175 175 163 162 150 124 112 105 92 75 79 338 13 137 269 230 147 123 170 223 183 167 227 197 220 229 165 151 141 122 139 226 177 148 143 135 254 243 218 197 201 202 175 178 161 159 168
188 189 183 182 180 179 178 174 176 180 178 182 187 191 188 186 187 188 190 191 193 196 198 198 197 193 188 187 180 180 155 105 233 187 178 189 190 193 185 182 178 172 169 160 161 143 116 98 85 69 69 106 360 36 217 265 113 110 182 199 198 145 128 206 187 208 182 133 118 121 144 176 180 148 153 150 158 229 233 219 208 195 175 167 174 171 166 174
192 192 189 188 181 180 179 172 175 177 179 184 189 194 189 187 188 189 192 192 194 195 196 197 195 189 184 182 181 183 161 153 216 157 175 185 183 188 179 180 176 165 165 164 161 136 107 73 79 96 70 73 134 144 231 303 74 128 264 245 203 179 172 201 151 214 155 121 135 153 172 151 125 203 183 169 198 221 219 231 217 190 169 164 161 166 172 180
195 191 191 192 183 179 178 173 174 174 176 176 182 191 188 188 190 191 193 193 196 194 193 195 194 187 175 166 167 157 147 242 215 157 172 174 178 183 176 179 169 161 164 160 153 129 106 86 109 142 91 70 168 182 251 12 46 95 172 280 202 191 214 342 39 161 131 135 180 168 125 138 164 186 123 199 232 237 248 281 202 160 154 156 156 172 183 186
193 187 188 189 183 179 175 176 176 172 173 169 173 182 184 188 192 191 191 193 194 191 192 191 193 184 167 162 149 78 331 244 181 164 171 170 176 177 175 175 162 165 166 167 166 147 129 120 151 148 104 204 177 156 115 66 36 86 170 213 120 114 315 343 33 61 80 123 151 114 116 210 199 168 122 233 246 251 252 41 123 139 143 159 170 183 188 192
188 184 187 186 181 178 175 179 177 175 174 168 171 175 177 188 192 189 190 193 188 187 189 186 192 180 171 166 119 110 230 212 169 171 173 171 175 174 176 171 163 168 162 173 172 153 159 160 179 170 148 201 161 149 139 109 240 186 149 151 109 14 341 360 30 40 41 63 72 114 122 308 247 211 265 247 248 236 110 86 117 137 150 177 183 187 190 195
186 183 184 183 181 178 179 184 180 175 173 171 176 175 176 187 189 187 188 191 184 182 183 184 188 176 177 164 101 151 226 176 171 177 174 173 173 172 174 168 167 171 161 163 157 152 172 183 176 149 131 139 133 129 140 147 196 154 105 92 75 5 331 21 52 353 7 43 60 143 196 304 311 304 256 267 289 155 108 98 139 153 169 188 190 196 197 200
184 183 182 181 182 182 186 190 184 175 176 178 179 175 182 192 189 188 187 187 179 174 179 183 181 175 182 143 120 190 215 167 178 176 173 175 173 173 172 170 171 176 169 153 166 171 169 169 150 113 119 158 127 76 258 169 109 119 118 88 8 355 341 23 76 333 355 88 80 128 167 306 347 300 228 280 332 198 140 136 165 178 190 197 197 202 202 211
183 183 183 181 183 189 194 200 195 181 180 184 180 173 182 195 195 193 185 181 174 169 176 179 177 175 167 93 147 201 177 169 179 173 174 173 173 175 168 173 174 176 176 160 180 181 148 157 135 101 189 151 125 105 171 111 79 114 108 99 337 360 4 340 39 306 356 118 300 106 69 300 253 233 218 304 357 37 141 169 194 207 213 213 211 212 212 222
183 184 184 183 185 193 200 208 209 194 185 181 177 170 184 198 201 193 177 173 170 166 171 174 175 171 145 99 210 193 172 176 177 173 174 173 173 175 171 173 166 162 175 168 177 168 145 160 135 115 137 110 126 187 115 64 63 125 64 99 355 8 344 318 6 314 90 114 320 103 212 278 253 247 241 299 10 76 158 222 225 229 231 230 221 223 228 228
183 185 185 186 189 195 200 201 199 194 187 178 172 171 189 198 200 183 166 165 165 163 167 168 170 161 120 217 220 194 191 182 176 172 170 174 168 162 164 160 160 159 153 151 158 151 142 149 123 103 101 96 131 114 55 23 32 81 51 57 46 75 266 304 329 159 134 153 18 99 169 265 269 277 276 296 300 161 213 238 233 240 243 240 230 226 237 235
183 184 186 190 193 192 192 187 185 186 182 174 169 174 187 193 189 164 156 160 158 159 160 160 163 142 71 289 261 189 195 182 175 174 169 171 161 151 157 147 143 141 128 130 135 126 124 129 107 88 94 33 83 89 46 12 21 42 97 321 345 171 258 309 305 163 144 284 44 96 198 269 277 281 278 321 69 170 210 242 246 250 248 246 241 232 239 245
185 183 186 192 190 184 181 181 181 179 176 173 169 169 167 165 157 143 149 151 147 151 146 150 161 130 100 256 347 158 190 186 179 176 170 170 166 151 144 135 124 125 122 117 119 110 99 99 76 83 117 65 85 100 65 36 357 1 106 195 266 179 265 314 310 288 129 129 27 85 211 265 289 277 278 341 70 138 201 254 264 256 252 249 244 240 240 251
186 183 187 190 187 179 177 179 175 173 175 166 149 140 137 135 134 134 139 134 130 129 117 141 160 125 75 124 74 204 198 184 179 174 170 171 168 151 138 123 106 115 108 101 110 91 55 53 57 83 69 73 107 100 85 74 263 295 60 146 228 190 204 283 286 301 39 101 284 23 230 250 275 284 288 311 50 65 272 263 264 255 256 253 245 250 246 247
188 186 186 190 191 181 178 177 172 172 166 144 130 123 120 116 113 118 127 124 113 97 80 120 142 132 258 205 183 212 184 168 169 166 162 158 155 150 140 116 112 108 86 69 69 54 26 25 71 102 42 66 128 112 141 207 201 192 182 160 210 213 202 242 253 252 48 72 225 349 276 262 272 283 289 290 346 327 274 261 264 261 257 258 253 250 246 245
191 190 188 192 191 180 179 176 170 168 155 136 126 119 109 98 92 97 117 121 110 101 125 177 152 155 220 211 183 127 133 150 155 158 152 143 144 138 113 100 105 99 98 95 38 37 71 51 69 121 140 169 185 168 176 198 175 172 178 150 155 177 224 241 253 264 130 110 228 227 236 264 273 281 285 288 338 287 275 278 271 261 253 256 254 250 249 246
193 190 189 192 185 177 176 173 168 164 154 142 133 120 106 105 91 83 113 139 187 182 214 198 164 137 125 170 129 117 120 129 137 153 150 148 144 127 81 60 67 65 112 153 147 68 94 122 176 185 188 193 189 170 147 151 144 141 133 115 144 169 233 251 265 304 40 132 250 240 247 269 271 274 273 279 324 313 276 273 263 257 252 248 248 253 251 245
191 188 190 187 177 173 173 170 166 164 161 153 145 128 134 163 134 155 178 283 253 253 289 217 145 102 83 119 141 137 116 91 36 122 152 158 145 139 82 34 101 89 209 165 139 49 80 151 211 212 195 177 154 145 114 97 91 101 133 129 127 175 215 251 247 316 350 145 262 348 320 273 262 268 268 271 289 270 251 250 254 254 252 251 251 255 254 255
187 186 185 178 172 170 170 169 165 167 169 165 161 153 205 189 143 153 148 143 242 316 26 179 96 62 51 131 160 154 78 88 85 257 174 150 130 160 171 73 131 160 230 134 114 71 82 205 228 213 161 110 95 116 99 87 88 83 116 131 137 204 233 285 297 333 6 55 266 341 332 276 261 260 262 256 251 252 246 239 244 249 252 253 246 249 256 265
185 184 180 176 173 169 168 167 167 172 175 175 179 200 210 188 149 148 132 96 191 325 56 149 117 104 65 136 185 167 87 138 169 224 204 150 136 176 138 109 136 143 150 160 145 137 161 246 235 171 138 116 93 88 97 88 81 89 108 129 164 245 163 229 294 330 6 60 261 312 305 280 280 282 274 261 248 265 271 254 248 243 241 245 246 249 252 255
182 183 184 178 169 168 168 163 166 183 187 186 192 203 172 149 157 158 110 75 157 232 232 209 149 154 142 151 181 160 121 153 166 191 191 156 145 153 146 139 132 131 173 173 149 155 198 257 167 122 128 130 118 113 126 122 76 53 137 138 160 202 173 185 300 339 354 20 28 1 320 293 316 329 295 301 330 294 289 291 273 251 240 250 264 265 252 248
182 183 183 175 169 166 163 160 175 190 187 191 203 203 167 146 170 174 91 77 169 306 290 228 153 185 170 131 159 164 134 125 183 196 183 159 145 137 152 142 131 159 184 143 133 164 221 264 123 118 104 109 121 154 176 151 138 293 217 176 174 172 164 172 35 57 35 356 349 22 360 293 316 320 276 307 345 307 301 304 272 262 264 269 270 265 259 260
180 181 174 170 167 160 154 166 194 182 171 194 203 186 167 153 173 180 93 61 259 267 173 175 147 180 173 139 150 141 111 235 279 60 134 150 142 109 134 129 76 164 172 137 131 169 222 7 89 124 119 107 120 166 206 152 123 224 234 178 154 132 129 143 116 82 85 264 314 41 107 263 308 302 269 306 334 307 303 288 271 278 288 277 265 267 264 255
174 175 170 166 162 158 156 174 171 162 160 202 192 175 170 156 165 172 75 48 271 193 144 181 357 167 171 173 152 133 160 220 119 68 94 130 48 51 119 178 106 140 170 125 131 220 157 74 64 96 100 105 128 175 204 147 125 212 229 128 122 118 129 141 110 93 200 241 326 13 109 233 296 269 269 322 334 309 302 288 288 294 287 278 269 269 264 251
172 172 169 167 165 163 164 156 156 157 172 179 175 174 170 154 158 138 81 113 243 137 141 225 110 143 150 84 101 113 205 207 125 178 351 80 103 44 97 192 154 138 132 117 175 255 129 143 164 128 99 124 176 208 185 132 110 231 195 118 118 120 124 122 96 91 26 356 315 316 107 189 274 273 300 347 327 293 289 285 296 303 297 294 282 273 270 267
170 170 169 168 170 172 173 161 161 161 174 164 167 175 163 149 147 87 82 186 193 85 135 151 126 132 119 97 78 61 29 41 121 218 358 77 79 43 115 189 134 116 50 88 166 235 48 187 191 139 126 179 200 247 173 128 102 185 142 97 76 73 77 76 90 102 49 17 250 256 214 184 267 286 312 2 268 259 272 283 288 294 299 294 291 306 316 309
169 167 171 170 175 187 193 177 174 161 160 164 165 168 152 134 131 113 178 219 139 92 80 134 163 161 138 138 94 6 80 46 25 83 36 69 28 29 98 142 96 102 34 36 97 256 317 273 184 115 144 182 145 91 102 101 131 137 108 73 56 34 31 43 54 75 58 307 255 248 252 175 267 281 256 208 218 220 246 305 304 320 339 330 320 338 345 338
171 171 174 174 181 189 179 179 187 163 154 165 158 155 137 85 89 149 200 221 116 96 77 137 195 142 152 160 163 158 102 45 318 132 126 143 56 50 117 118 75 80 44 35 32 326 351 28 264 245 152 132 99 73 34 18 84 106 89 87 80 4 7 22 360 34 106 257 264 263 274 171 218 262 252 243 256 233 204 223 271 324 341 338 336 336 332 333
175 180 177 179 186 188 177 174 184 168 155 162 152 133 104 93 190 196 205 221 150 185 175 171 205 170 164 159 135 146 127 81 175 148 145 148 148 168 166 169 155 105 148 186 161 338 14 48 287 313 240 146 108 81 42 5 25 75 96 98 92 6 7 352 311 341 217 247 274 284 275 210 228 250 256 260 264 250 227 214 219 272 297 307 325 324 312 306
176 184 177 183 189 187 192 170 172 177 162 158 145 68 79 135 209 204 191 230 196 179 145 133 139 151 151 143 144 158 116 125 185 145 128 134 159 203 232 191 155 125 180 182 131 122 298 307 304 61 290 196 139 127 131 215 78 119 134 126 123 127 102 261 267 285 256 259 291 290 264 258 272 264 247 249 254 248 236 224 225 247 267 285 299 297 291 293
176 182 175 184 191 188 195 175 168 177 160 152 130 78 122 186 208 165 162 214 214 63 85 113 108 126 144 146 179 174 107 148 178 131 117 124 148 200 226 222 170 105 115 145 150 167 178 272 230 167 217 192 169 175 154 148 149 172 156 131 145 157 158 210 217 211 243 274 303 296 249 207 197 256 240 237 258 277 261 247 256 264 271 292 299 299 311 323
167 179 178 186 195 196 196 181 166 166 157 141 100 127 176 205 206 153 170 193 181 62 50 91 114 130 157 68 190 197 141 159 175 128 149 167 173 194 195 201 192 129 131 159 202 173 163 246 256 262 254 164 173 220 129 113 108 245 123 106 164 184 142 139 183 175 175 307 302 263 234 216 204 276 275 228 251 290 289 296 310 297 306 332 312 312 329 325
142 165 177 182 187 191 190 179 164 164 160 126 124 182 204 206 193 182 173 148 144 133 106 86 98 133 173 117 190 221 161 118 157 146 180 196 203 198 191 199 190 178 168 158 172 173 156 259 303 343 345 135 168 216 113 120 167 169 131 170 213 172 113 113 211 79 80 244 269 215 248 292 328 294 300 310 282 302 307 311 321 300 312 346 293 295 320 317
121 138 161 162 171 181 179 170 160 161 152 123 174 204 210 170 173 173 155 124 139 141 127 140 168 154 172 171 189 204 178 116 157 167 185 194 230 199 193 227 194 186 192 155 163 199 154 194 316 28 117 312 299 119 61 28 122 127 178 207 193 117 90 108 185 360 44 243 275 268 243 289 324 279 321 338 281 282 277 293 337 313 316 352 308 307 314 307
109 102 112 129 164 178 172 161 155 147 112 134 202 219 196 137 184 168 158 134 132 136 142 164 170 144 169 181 185 186 176 167 174 180 174 184 242 203 177 202 196 188 200 164 161 212 141 146 311 16 164 302 352 98 81 353 52 130 180 174 118 138 171 95 146 186 138 235 282 303 279 268 208 230 306 277 225 246 250 204 112 263 258 348 333 341 335 335
105 71 35 144 163 177 171 160 148 128 109 183 207 222 195 129 227 221 201 146 118 130 163 181 167 125 172 176 163 171 186 181 171 180 182 182 237 218 177 187 196 186 191 157 157 198 138 148 255 319 255 308 13 126 193 224 32 56 101 98 79 136 166 156 153 166 169 200 264 310 318 274 226 218 218 220 215 223 232 169 158 202 192 176 233 89 54 18
96 63 304 178 160 158 155 145 129 133 176 202 205 210 112 105 231 274 264 181 113 123 172 184 166 146 162 163 154 171 185 174 168 184 208 188 212 241 199 188 174 172 171 130 132 169 131 158 205 311 346 194 197 219 190 168 147 115 119 152 180 81 107 157 161 119 138 164 192 283 298 269 252 215 197 219 221 209 205 153 151 185 190 201 209 163 157 165
69 89 279 186 159 148 141 132 124 177 189 211 178 152 146 143 138 317 313 118 111 71 144 155 155 153 154 154 172 178 160 154 173 185 214 204 203 230 216 185 156 147 140 119 157 175 158 167 168 144 182 204 225 264 191 167 167 167 175 186 182 154 124 154 244 242 122 154 171 193 268 263 251 214 200 229 226 197 194 140 128 152 181 197 214 203 199 204
106 134 284 184 163 150 128 118 196 187 175 202 178 146 120 94 113 129 327 47 77 60 84 109 130 149 159 161 165 163 153 158 183 188 210 215 203 211 219 173 148 150 153 163 190 181 127 111 127 157 213 217 241 289 220 161 131 138 196 196 170 161 140 152 209 228 133 177 154 126 264 269 263 228 205 251 239 198 198 142 124 148 182 200 229 236 233 228
144 151 17 177 169 155 115 80 214 229 220 228 296 46 64 76 107 142 189 41 71 83 72 90 140 146 173 165 147 162 169 172 190 197 210 216 211 221 204 160 149 156 162 167 176 170 117 113 129 205 303 306 314 341 20 64 91 128 234 179 159 182 153 147 181 177 159 196 152 109 256 266 280 304 309 264 219 178 188 148 131 160 212 232 246 256 269 288
141 124 24 171 173 160 145 167 187 191 187 101 46 2 10 87 137 138 162 177 138 123 119 157 169 142 166 147 134 172 184 181 197 205 202 195 211 258 159 165 163 163 174 189 180 178 196 165 133 123 29 351 335 334 331 300 182 196 223 184 166 147 104 101 127 110 196 217 165 162 241 253 271 321 4 73 128 134 173 179 150 169 218 248 277 312 347 359
86 103 12 356 153 153 163 172 145 152 149 119 114 214 228 203 183 172 158 144 155 153 146 178 161 100 120 120 83 161 183 169 180 195 185 193 222 358 40 180 185 181 193 242 170 166 185 185 150 155 178 196 207 212 218 204 169 187 201 177 173 147 137 158 137 121 234 227 162 187 238 250 282 326 356 163 155 150 192 231 208 202 240 288 324 355 8 8
109 141 150 16 25 95 183 140 139 153 156 142 149 191 181 195 254 188 153 159 198 149 110 16 124 92 104 139 119 163 195 166 84 169 182 197 214 299 351 114 172 184 131 81 136 145 143 191 189 189 202 207 204 198 158 133 143 203 203 176 181 179 174 174 141 178 215 197 172 223 232 232 255 276 251 219 192 182 192 205 215 226 281 305 337 17 11 356
106 155 162 142 138 207 197 166 167 180 171 162 173 178 176 189 229 198 175 200 204 148 101 21 161 158 176 164 147 168 189 148 73 158 176 183 192 294 325 83 92 95 88 105 150 124 112 214 212 201 219 224 205 185 165 149 169 199 196 185 191 190 181 179 193 213 203 147 236 234 201 221 242 226 218 223 207 209 215 204 208 274 328 314 346 15 359 351
67 72 181 89 40 192 200 187 179 182 171 167 174 164 169 181 183 187 192 160 143 164 157 237 223 198 187 169 157 155 156 161 210 197 162 149 153 59 15 55 69 61 109 114 188 116 136 219 216 191 226 240 206 166 184 176 184 198 194 194 196 188 184 193 210 220 195 182 241 231 165 209 238 214 207 221 207 203 211 207 218 347 316 315 8 10 346 355
58 23 311 352 45 186 272 180 169 181 180 172 179 176 170 179 190 199 168 115 153 230 189 215 225 188 187 184 150 152 169 180 202 204 177 142 151 133 105 132 290 29 104 128 163 146 157 224 208 173 221 244 220 162 189 186 189 205 201 199 196 191 194 200 212 222 210 209 239 238 200 227 239 200 208 224 200 188 187 172 298 304 293 350 26 358 323 338
107 216 267 22 45 46 328 255 167 182 190 180 194 197 178 183 193 198 181 159 181 196 188 206 193 151 180 197 163 188 206 184 167 184 176 156 171 188 175 180 170 60 75 136 157 178 192 217 160 136 204 251 223 160 192 196 196 209 212 208 203 198 203 210 215 220 217 223 241 248 247 255 247 176 205 216 149 161 356 19 307 297 323 47 61 296 297 325
146 26 107 100 36 210 298 316 170 182 195 194 200 196 195 203 197 188 197 199 193 185 182 188 169 133 171 201 211 225 219 174 145 159 158 150 162 185 187 174 154 133 120 143 132 131 176 200 78 116 190 249 211 155 163 164 178 226 232 218 209 205 209 214 216 213 206 217 233 240 248 256 231 161 185 191 134 165 227 207 236 271 56 124 152 199 274 332
139 30 73 108 39 240 202 353 191 191 198 206 205 189 188 203 186 173 190 214 203 204 199 178 163 154 179 206 224 224 179 137 142 152 153 133 129 166 172 139 136 141 141 143 124 129 158 164 136 156 194 240 190 145 130 111 131 239 238 218 209 210 210 209 220 227 216 209 214 222 234 244 197 150 156 159 164 172 178 199 213 180 148 157 161 164 174 191